User: anonymous   Login
Location: Plymouth
(43.7570°N, 71.6890°W)
Time: 14:53:24
(UTC-05:00)
Language:

COSMOS 2406 - Orbit

View from above orbital plane
View from above orbital plane
View from above satellite
View from above satellite

Ground track
Ground track

The orbit data is extracted from the following two-line orbital elements,

1 28352U 04021A   16336.54573250 -.00000565  00000-0 -28451-3 0  9998
2 28352  71.0036 177.3725 0012255  32.0885 328.0980 14.11632077642950
Epoch (UTC): 01 December 2016 13:05:51
Eccentricity: 0.0012255
inclination: 71.0036°
perigee height: 845 km
apogee height: 862 km
right ascension of ascending node: 177.3725°
argument of perigee: 32.0885°
revolutions per day: 14.11632077
mean anomaly at epoch: 328.0980°
orbit number at epoch: 64295

The dashed part of the orbit path shows where the satellite is in the earth's shadow,  

DLR